EW9034 Weather Reports


Display with metric or nautical units.
time (UTC)temp
F
wind
direction
speed
MPH
gust
MPH
rain 1hr
in
rain 24hr
in
rain mn
in
humidity
%
barometer
mb
20260905221502 66 82 4.0 8.0 0.00 0.11 0.11 75 1017.3
20260905220100 64 134 1.0 8.0 0.00 0.11 0.11 80 1017.3
20260905214540 64 142 3.0 7.0 0.00 0.11 0.11 79 1017.3
20260905213133 63 140 2.0 5.0 0.00 0.11 0.11 81 1017.1
20260905211548 64 140 0.0 5.0 0.00 0.11 0.11 80 1017.0
20260905210012 62 143 2.0 5.0 0.00 0.11 0.11 83 1017.1
20260905204613 62 149 2.0 6.0 0.00 0.11 0.11 84 1017.3
20260905203042 61 155 0.0 5.0 0.00 0.11 0.11 89 1017.7
20260905201629 60 155 0.0 3.0 0.00 0.11 0.11 91 1017.8
20260905200056 59 155 0.0 1.0 0.00 0.11 0.11 92 1017.8
20260905194614 59 155 0.0 1.0 0.04 0.11 0.11 94 1017.7
20260905193040 58 155 0.0 2.0 0.04 0.11 0.11 94 1018.1
20260905191634 58 155 0.0 3.0 0.04 0.11 0.11 94 1018.1
20260905190052 57 155 1.0 6.0 0.04 0.11 0.11 94 1017.6
20260905184617 57 155 2.0 7.0 0.00 0.07 0.07 94 1017.9
20260905183041 57 200 3.0 5.0 0.00 0.07 0.07 94 1017.6
20260905181631 57 221 2.0 3.0 0.00 0.07 0.07 94 1017.8
20260905180049 57 221 0.0 1.0 0.00 0.07 0.07 95 1017.7
20260905174636 56 221 1.0 4.0 0.00 0.07 0.07 95 1017.9
20260905173057 56 221 1.0 7.0 0.00 0.07 0.07 95 1018.0
20260905171516 55 102 0.0 4.0 0.00 0.07 0.07 95 1017.7
20260905170053 55 102 0.0 4.0 0.01 0.07 0.07 95 1017.2
20260905164634 55 103 0.0 3.0 0.01 0.07 0.07 95 1017.2
20260905163038 55 103 1.0 6.0 0.01 0.07 0.07 95 1017.3
20260905161630 54 101 5.0 10.0 0.02 0.07 0.07 94 1016.6
20260905160117 54 204 2.0 6.0 0.04 0.06 0.06 94 1016.4
20260905154524 54 241 2.0 4.0 0.05 0.06 0.06 94 1016.7
20260905153120 54 241 0.0 0.0 0.06 0.06 0.06 94 1017.2
20260905151537 54 241 0.0 2.0 0.05 0.05 0.05 94 1017.4
20260905150126 53 241 1.0 8.0 0.02 0.02 0.02 94 1018.0
20260905144546 53 267 6.0 10.0 0.01 0.01 0.01 94 1018.3
20260905143035 53 285 0.0 3.0 0.00 0.00 0.00 94 1017.3
20260905141537 53 285 0.0 5.0 0.00 0.00 0.00 94 1016.8
20260905140031 53 276 2.0 6.0 0.00 0.00 0.00 94 1016.3
20260905134535 52 274 3.0 9.0 0.00 0.00 0.00 94 1016.2
20260905133030 52 246 2.0 5.0 0.00 0.00 0.00 94 1016.6
20260905131528 50 244 1.0 7.0 0.00 0.00 0.00 94 1016.4
20260905130027 49 244 0.0 7.0 0.00 0.00 0.00 93 1016.4
20260905124533 48 261 0.0 4.0 0.00 0.00 0.00 93 1015.7
20260905123021 47 271 0.0 1.0 0.00 0.00 0.00 93 1015.3
20260905121520 47 271 0.0 2.0 0.00 0.00 0.00 91 1015.1
20260905120017 48 271 0.0 3.0 0.00 0.00 0.00 91 1015.4
20260905114515 48 274 0.0 1.0 0.00 0.00 0.00 91 1014.9
20260905113011 49 274 0.0 1.0 0.00 0.00 0.00 91 1015.2
20260905111510 50 274 0.0 3.0 0.00 0.00 0.00 91 1015.3
20260905110010 50 274 1.0 3.0 0.00 0.00 0.00 91 1015.2
20260905104504 51 274 0.0 3.0 0.00 0.00 0.00 91 1014.7
20260905103009 50 274 0.0 6.0 0.00 0.00 0.00 92 1014.7
20260905101502 51 267 3.0 7.0 0.00 0.00 0.00 91 1014.2
20260905100001 51 255 1.0 3.0 0.00 0.00 0.00 91 1014.4
20260905094601 51 255 0.0 4.0 0.00 0.00 0.00 91 1014.0
20260905093100 51 254 0.0 4.0 0.00 0.00 0.00 91 1014.2
20260905091621 51 254 0.0 0.0 0.00 0.00 0.00 91 1014.4
20260905090119 52 254 0.0 0.0 0.00 0.00 0.00 90 1014.0
20260905084606 52 254 0.0 2.0 0.00 0.00 0.00 91 1013.9
20260905083055 51 254 0.0 2.0 0.00 0.00 0.00 90 1013.6
20260905081553 51 255 0.0 3.0 0.00 0.00 0.00 90 1013.8
20260905080055 50 259 1.0 3.0 0.00 0.00 0.00 88 1013.5
20260905074548 52 258 1.0 4.0 0.00 0.00 0.00 88 1013.8
20260905073052 52 257 1.0 4.0 0.00 0.00 0.00 87 1014.0
20260905071545 53 267 1.0 2.0 0.00 0.00 0.00 86 1013.9
20260905070040 54 267 0.0 3.0 0.00 0.00 0.00 84 1013.9
20260905064536 56 268 0.0 1.0 0.00 0.00 0.00 83 1013.5
20260905063032 56 268 0.0 1.0 0.00 0.00 0.00 80 1013.5
20260905061532 56 268 2.0 3.0 0.00 0.00 0.00 76 1013.9
20260905060026 56 268 1.0 7.0 0.00 0.00 0.00 76 1014.0
20260905054523 56 287 3.0 5.0 0.00 0.00 0.00 74 1013.7
20260905053021 57 291 0.0 3.0 0.00 0.00 0.00 72 1012.8
20260905051523 58 291 1.0 4.0 0.00 0.00 0.00 68 1012.3
20260905050023 59 306 0.0 0.0 0.00 0.00 0.00 64 1013.2
20260905044516 60 307 1.0 5.0 0.00 0.00 0.00 62 1012.3
20260905043022 60 306 1.0 8.0 0.00 0.00 0.00 61 1012.1
20260905041514 58 292 2.0 7.0 0.00 0.00 0.00 65 1011.9
20260905040014 57 273 1.0 7.0 0.00 0.00 0.00 65 1012.0
20260905034517 56 265 5.0 8.0 0.00 0.00 0.00 67 1012.2
20260905033020 56 261 0.0 4.0 0.00 0.00 0.00 70 1012.1
20260905031511 54 261 2.0 4.0 0.00 0.00 0.00 73 1011.8
20260905030017 55 274 2.0 4.0 0.00 0.00 0.00 66 1011.9
20260905024507 57 275 0.0 2.0 0.00 0.00 0.00 64 1011.3
20260905023006 58 275 1.0 4.0 0.00 0.00 0.00 64 1010.9
20260905021506 59 275 2.0 3.0 0.00 0.00 0.00 58 1011.0
20260905020006 62 275 2.0 6.0 0.00 0.00 0.00 53 1010.9
20260905014503 64 276 2.0 6.0 0.00 0.00 0.00 50 1010.7
20260905013001 67 281 2.0 4.0 0.00 0.00 0.00 46 1010.8
20260905011603 69 282 2.0 5.0 0.00 0.00 0.00 44 1010.6
20260905010106 71 286 1.0 7.0 0.00 0.00 0.00 43 1010.4
20260905004558 71 294 3.0 10.0 0.00 0.00 0.00 41 1010.3
20260905003057 71 309 4.0 11.0 0.00 0.00 0.00 39 1010.3
20260905001603 72 281 5.0 11.0 0.00 0.00 0.00 39 1010.1
20260905000110 72 298 5.0 14.0 0.00 0.00 0.00 40 1009.9
20260904234551 72 300 5.0 15.0 0.00 0.00 0.00 37 1009.7
20260904233109 72 275 4.0 13.0 0.00 0.00 0.00 39 1009.6
20260904231555 72 311 8.0 15.0 0.00 0.00 0.00 38 1009.4
20260904230049 72 349 6.0 15.0 0.00 0.00 0.00 41 1009.3
20260904224553 68 296 8.0 14.0 0.00 0.00 0.00 42 1009.4
20260904223058 68 305 7.0 16.0 0.00 0.00 0.00 44 1009.2